Location: Roc des P�zouls
(43.9667°N, 3.5500°E)
Time: 15:12:29
(UTC+00:00)

CZ-2C R/B - Pass Details

Date: 14 November 2019
Orbit: 667 x 785 km, 98.1° (Epoch: 06 December)

Event Time Altitude Azimuth Distance (km) Brightness Sun altitude
Rises 03:52:23 0° 17° (NNE) 3,192 6.0 -29.9°
Reaches altitude 10° 03:54:46 10° 22° (NNE) 2,246 5.2 -29.5°
Maximum altitude 03:59:36 55° 100° (E) 858 2.9 -28.6°
Enters shadow 04:01:53 29° 165° (SSE) 1,294 3.7 -28.2°
